When you browse on this site, cookies collect data to enhance your experience and personalize the content and advertising you see.
Visit our Privacy Policy to learn more. By continuing to use the site, you agree to this use of cookies and data.
  • In Österreich
  • Länderverzeichnis
  • Für 7 Tage
  • Wassertemperatur
  • Wetterkarte
  • News
  • Widgets
  • user-avatar
    Anmelden

    Stündliche Wetter Bregenz

    Heute, 22 Oktober, Dienstag

    Zeit Temperatur Niederschläge Wind Luftdruck Luftfeuchtigkeit
    00:00 +9°C° 0 mm 1 m/S 650 mmHg 95%
    01:00 +9°C° 0 mm 1 m/S 650 mmHg 94%
    02:00 +8°C° 0 mm 1 m/S 650 mmHg 95%
    03:00 +8°C° 0 mm 1 m/S 650 mmHg 95%
    04:00 +7°C° 0 mm 0 m/S 650 mmHg 95%
    05:00 +8°C° 0 mm 1 m/S 650 mmHg 95%
    06:00 +7°C° 0 mm 1 m/S 650 mmHg 94%
    07:00 +7°C° 0 mm 1 m/S 650 mmHg 94%
    08:00 +8°C° 0 mm 1 m/S 650 mmHg 90%
    09:00 +10°C° 0 mm 1 m/S 650 mmHg 86%
    10:00 +11°C° 0 mm 1 m/S 651 mmHg 81%
    11:00 +12°C° 0 mm 1 m/S 651 mmHg 79%
    12:00 +13°C° 0 mm 1 m/S 651 mmHg 78%
    13:00 +13°C° 0 mm 1 m/S 651 mmHg 76%
    14:00 +13°C° 0 mm 1 m/S 651 mmHg 78%
    15:00 +13°C° 0 mm 1 m/S 651 mmHg 80%
    16:00 +13°C° 0 mm 1 m/S 650 mmHg 83%
    17:00 +11°C° 0 mm 1 m/S 650 mmHg 86%
    18:00 +10°C° 0 mm 1 m/S 650 mmHg 89%
    19:00 +9°C° 0 mm 1 m/S 650 mmHg 92%
    20:00 +9°C° 0 mm 1 m/S 649 mmHg 92%
    21:00 +9°C° 0 mm 1 m/S 649 mmHg 91%
    22:00 +8°C° 0 mm 1 m/S 649 mmHg 90%
    23:00 +8°C° 0 mm 1 m/S 649 mmHg 89%

    Morgen, 23 Oktober, Mittwoch

    Zeit Temperatur Niederschläge Wind Luftdruck Luftfeuchtigkeit
    00:00 +8°C° 0 mm 1 m/S 649 mmHg 88%
    01:00 +8°C° 0 mm 1 m/S 649 mmHg 87%
    02:00 +6°C° 0 mm 2 m/S 648 mmHg 86%
    03:00 +6°C° 0 mm 2 m/S 648 mmHg 85%
    04:00 +6°C° 0 mm 2 m/S 647 mmHg 84%
    05:00 +6°C° 0 mm 2 m/S 647 mmHg 83%
    06:00 +6°C° 0 mm 2 m/S 647 mmHg 81%
    07:00 +6°C° 0 mm 2 m/S 646 mmHg 79%
    08:00 +8°C° 0 mm 2 m/S 647 mmHg 74%
    09:00 +10°C° 0 mm 2 m/S 647 mmHg 69%
    10:00 +13°C° 0 mm 2 m/S 648 mmHg 63%
    11:00 +14°C° 0 mm 2 m/S 648 mmHg 60%
    12:00 +15°C° 0 mm 2 m/S 648 mmHg 57%
    13:00 +16°C° 0 mm 1 m/S 648 mmHg 53%
    14:00 +16°C° 0 mm 1 m/S 648 mmHg 58%
    15:00 +15°C° 0 mm 1 m/S 647 mmHg 63%
    16:00 +14°C° 0 mm 1 m/S 647 mmHg 67%
    17:00 +13°C° 0 mm 2 m/S 647 mmHg 69%
    18:00 +10°C° 0 mm 2 m/S 646 mmHg 71%
    19:00 +9°C° 0 mm 2 m/S 645 mmHg 73%
    20:00 +8°C° 0 mm 2 m/S 645 mmHg 71%
    21:00 +8°C° 0 mm 3 m/S 645 mmHg 70%
    22:00 +8°C° 0 mm 3 m/S 645 mmHg 68%
    23:00 +8°C° 0 mm 3 m/S 645 mmHg 67%

    übermorgen, 24 Oktober, Donnerstag

    Zeit Temperatur Niederschläge Wind Luftdruck Luftfeuchtigkeit
    00:00 +8°C° 0 mm 3 m/S 645 mmHg 65%
    01:00 +8°C° 0 mm 3 m/S 645 mmHg 63%
    02:00 +8°C° 0 mm 3 m/S 645 mmHg 64%
    03:00 +8°C° 0 mm 3 m/S 644 mmHg 64%
    04:00 +8°C° 0 mm 3 m/S 644 mmHg 65%
    05:00 +8°C° 0 mm 3 m/S 644 mmHg 66%
    06:00 +8°C° 0 mm 2 m/S 644 mmHg 67%
    07:00 +7°C° 0 mm 2 m/S 644 mmHg 68%
    08:00 +9°C° 0 mm 2 m/S 645 mmHg 66%
    09:00 +10°C° 0 mm 2 m/S 645 mmHg 65%
    10:00 +13°C° 0 mm 1 m/S 646 mmHg 63%
    11:00 +13°C° 0 mm 1 m/S 646 mmHg 62%
    12:00 +14°C° 0 mm 1 m/S 646 mmHg 62%
    13:00 +15°C° 0 mm 1 m/S 647 mmHg 61%
    14:00 +14°C° 0 mm 1 m/S 647 mmHg 66%
    15:00 +13°C° 0 mm 1 m/S 646 mmHg 71%
    16:00 +13°C° 0 mm 1 m/S 646 mmHg 77%
    17:00 +11°C° 0 mm 1 m/S 646 mmHg 81%
    18:00 +10°C° 0 mm 1 m/S 646 mmHg 86%
    19:00 +8°C° 0 mm 0 m/S 646 mmHg 91%
    20:00 +8°C° 0 mm 0 m/S 646 mmHg 91%
    21:00 +8°C° 0 mm 0 m/S 647 mmHg 90%
    22:00 +8°C° 0 mm 0 m/S 647 mmHg 90%
    23:00 +9°C° 0 mm 1 m/S 647 mmHg 89%

    25 Oktober, Freitag

    Zeit Temperatur Niederschläge Wind Luftdruck Luftfeuchtigkeit
    00:00 +9°C° 0 mm 1 m/S 647 mmHg 89%
    01:00 +9°C° 0 mm 1 m/S 648 mmHg 88%
    02:00 +9°C° 0.1 mm 1 m/S 648 mmHg 90%
    03:00 +9°C° 0.1 mm 1 m/S 648 mmHg 92%
    04:00 +9°C° 0.1 mm 1 m/S 648 mmHg 94%
    05:00 +8°C° 0.3 mm 1 m/S 648 mmHg 94%
    06:00 +7°C° 0.3 mm 0 m/S 648 mmHg 95%
    07:00 +7°C° 0.3 mm 0 m/S 648 mmHg 95%
    08:00 +8°C° 0 mm 0 m/S 649 mmHg 92%
    09:00 +9°C° 0 mm 0 m/S 649 mmHg 89%
    10:00 +11°C° 0 mm 1 m/S 650 mmHg 85%
    11:00 +11°C° 0 mm 1 m/S 650 mmHg 83%
    12:00 +12°C° 0 mm 1 m/S 650 mmHg 81%
    13:00 +13°C° 0 mm 1 m/S 650 mmHg 78%
    14:00 +12°C° 0 mm 1 m/S 649 mmHg 81%
    15:00 +12°C° 0 mm 1 m/S 649 mmHg 83%
    16:00 +12°C° 0 mm 1 m/S 649 mmHg 86%
    17:00 +11°C° 0 mm 1 m/S 649 mmHg 88%
    18:00 +9°C° 0 mm 0 m/S 649 mmHg 91%
    19:00 +9°C° 0 mm 0 m/S 649 mmHg 93%
    20:00 +8°C° 0 mm 0 m/S 649 mmHg 93%
    21:00 +9°C° 0 mm 1 m/S 649 mmHg 93%
    22:00 +8°C° 0 mm 1 m/S 649 mmHg 93%
    23:00 +8°C° 0 mm 1 m/S 648 mmHg 91%

    26 Oktober, Samstag

    Zeit Temperatur Niederschläge Wind Luftdruck Luftfeuchtigkeit
    00:00 +7°C° 0 mm 1 m/S 648 mmHg 90%
    01:00 +7°C° 0 mm 1 m/S 648 mmHg 89%
    02:00 +7°C° 0 mm 1 m/S 648 mmHg 86%
    03:00 +7°C° 0 mm 1 m/S 648 mmHg 84%
    04:00 +6°C° 0 mm 1 m/S 648 mmHg 81%
    05:00 +6°C° 0 mm 1 m/S 648 mmHg 81%
    06:00 +6°C° 0 mm 1 m/S 648 mmHg 80%
    07:00 +6°C° 0 mm 1 m/S 648 mmHg 80%
    08:00 +8°C° 0 mm 1 m/S 649 mmHg 75%
    09:00 +10°C° 0 mm 1 m/S 650 mmHg 70%
    10:00 +11°C° 0 mm 0 m/S 651 mmHg 65%
    11:00 +13°C° 0 mm 1 m/S 651 mmHg 63%
    12:00 +14°C° 0 mm 1 m/S 651 mmHg 62%
    13:00 +14°C° 0 mm 1 m/S 651 mmHg 60%
    14:00 +14°C° 0 mm 1 m/S 650 mmHg 66%
    15:00 +13°C° 0 mm 1 m/S 650 mmHg 72%
    16:00 +12°C° 0 mm 1 m/S 649 mmHg 78%
    17:00 +11°C° 0 mm 1 m/S 649 mmHg 83%
    18:00 +9°C° 0 mm 1 m/S 649 mmHg 87%
    19:00 +8°C° 0 mm 1 m/S 648 mmHg 92%
    20:00 +7°C° 0 mm 1 m/S 648 mmHg 92%
    21:00 +7°C° 0 mm 1 m/S 648 mmHg 91%
    22:00 +7°C° 0 mm 1 m/S 649 mmHg 91%
    23:00 +7°C° 0 mm 1 m/S 649 mmHg 91%

    27 Oktober, Sonntag

    Zeit Temperatur Niederschläge Wind Luftdruck Luftfeuchtigkeit
    00:00 +6°C° 0 mm 1 m/S 649 mmHg 91%
    01:00 +6°C° 0 mm 1 m/S 649 mmHg 91%
    02:00 +5°C° 0 mm 0 m/S 649 mmHg 92%
    03:00 +5°C° 0 mm 0 m/S 649 mmHg 93%
    04:00 +5°C° 0 mm 0 m/S 649 mmHg 93%
    05:00 +5°C° 0 mm 0 m/S 649 mmHg 94%
    06:00 +4°C° 0 mm 0 m/S 649 mmHg 94%
    07:00 +4°C° 0 mm 0 m/S 649 mmHg 94%
    08:00 +6°C° 0 mm 0 m/S 649 mmHg 89%
    09:00 +7°C° 0 mm 0 m/S 650 mmHg 84%
    10:00 +9°C° 0 mm 0 m/S 650 mmHg 79%
    11:00 +10°C° 0 mm 1 m/S 650 mmHg 77%
    12:00 +11°C° 0 mm 1 m/S 650 mmHg 75%
    13:00 +11°C° 0 mm 1 m/S 650 mmHg 73%
    14:00 +11°C° 0 mm 1 m/S 650 mmHg 77%
    15:00 +11°C° 0 mm 1 m/S 650 mmHg 81%
    16:00 +10°C° 0 mm 1 m/S 649 mmHg 84%
    17:00 +9°C° 0 mm 1 m/S 649 mmHg 88%
    18:00 +8°C° 0 mm 1 m/S 649 mmHg 92%
    19:00 +6°C° 0 mm 0 m/S 649 mmHg 96%
    20:00 +7°C° 0 mm 1 m/S 649 mmHg 95%
    21:00 +7°C° 0 mm 1 m/S 649 mmHg 94%
    22:00 +7°C° 0 mm 1 m/S 649 mmHg 93%
    23:00 +7°C° 0 mm 1 m/S 649 mmHg 93%

    28 Oktober, Montag

    Zeit Temperatur Niederschläge Wind Luftdruck Luftfeuchtigkeit
    00:00 +6°C° 0 mm 1 m/S 648 mmHg 93%
    01:00 +5°C° 0 mm 0 m/S 648 mmHg 93%
    02:00 +5°C° 0 mm 0 m/S 648 mmHg 93%
    03:00 +5°C° 0 mm 0 m/S 647 mmHg 92%
    04:00 +5°C° 0 mm 0 m/S 647 mmHg 92%
    05:00 +5°C° 0 mm 0 m/S 647 mmHg 91%
    06:00 +5°C° 0 mm 0 m/S 647 mmHg 90%
    07:00 +6°C° 0 mm 1 m/S 647 mmHg 89%
    08:00 +5°C° 0 mm 0 m/S 647 mmHg 88%
    09:00 +6°C° 0 mm 0 m/S 647 mmHg 88%
    10:00 +6°C° 0 mm 0 m/S 648 mmHg 87%
    11:00 +7°C° 0 mm 0 m/S 648 mmHg 86%
    12:00 +7°C° 0 mm 0 m/S 648 mmHg 84%
    13:00 +8°C° 0 mm 0 m/S 648 mmHg 83%
    14:00 +7°C° 0 mm 0 m/S 647 mmHg 84%
    15:00 +7°C° 0 mm 0 m/S 647 mmHg 85%
    16:00 +7°C° 0 mm 0 m/S 646 mmHg 86%
    17:00 +7°C° 0.1 mm 0 m/S 646 mmHg 88%
    18:00 +7°C° 0.1 mm 0 m/S 646 mmHg 89%
    19:00 +6°C° 0.1 mm 0 m/S 646 mmHg 91%
    20:00 +6°C° 0.2 mm 0 m/S 646 mmHg 91%
    21:00 +7°C° 0.2 mm 1 m/S 646 mmHg 91%
    22:00 +8°C° 0.2 mm 1 m/S 646 mmHg 91%
    23:00 +8°C° 0.1 mm 1 m/S 646 mmHg 91%
    Mehr zeigen